Weather History for Lewisburg, WV

Change the Weather History Date:

Wednesday, September 11, 2013

  Actual Average Record
Temperature  
Mean Temperature 70 °F 64 °F  
Max Temperature 80 °F 76 °F 85 °F (1983)
Min Temperature 60 °F 51 °F 41 °F (2012)
Degree Days  
Heating Degree Days 0    
Month to date heating degree days  
Since 1 July heating degree days  
Cooling Degree Days 5    
Month to date cooling degree days  
Year to date cooling degree days  
Growing Degree Days 20 (Base 50)    
Moisture  
Dew Point 63 °F    
Average Humidity 82    
Maximum Humidity 100    
Minimum Humidity 51    
Precipitation  
Precipitation 0.00 in 0.10 in 0.11 in (2011)
Month to date precipitation 1.14  
Year to date precipitation 29.24  
Snow  
Snow 0.00 in - - ()
Month to date snowfall  
Since 1 July snowfall  
Since 1 September snowfall  
Snow Depth -    
Sea Level Pressure  
Sea Level Pressure 30.25 in    
Wind  
Wind Speed 1 mph (West)    
Max Wind Speed 8 mph    
Max Gust Speed -    
Visibility 5 miles    
Events Fog , Thunderstorm    
T = Trace of Precipitation, MM = Missing Value Source: NWS Daily Summary

Daily Weather History Graph

Daily Weather History Graph

Search for Another Location

Airport:

Trip Planner

Search our weather history database for the weather conditions in past years. The results will help you decide how hot, cold, wet, or windy it might be!

Date:

Astronomy

Sep. 11, 2013 Rise Set
Actual Time 7:00 AM EDT 7:35 PM EDT
Civil Twilight 6:33 AM EDT 8:01 PM EDT
Nautical Twilight 6:02 AM EDT 8:32 PM EDT
Astronomical Twilight 5:30 AM EDT 9:04 PM EDT
Moon 1:20 PM EDT (9/11) 11:36 PM EDT (9/11)
Length of Visible Light 13h 28m
Length of Day
12h 35m
Waxing Crescent, 38% of the Moon is Illuminated
Sep 11
Waxing Crescent
Sep 12
First Quarter
Sep 19
Full
Sep 26
Last Quarter
Oct 4
New

Hourly Weather History & Observations

Time (EDT) Temp. Heat Index Dew Point Humidity Pressure Visibility Wind Dir Wind Speed Gust Speed Precip Events Conditions
12:15 AM 64.4 °F - 62.6 °F 94% 30.31 in 5.0 mi Calm Calm - N/A   Clear
12:35 AM 64.4 °F - 60.8 °F 88% 30.30 in 4.0 mi Calm Calm - N/A   Clear
12:55 AM 64.4 °F - 62.6 °F 94% 30.30 in 2.5 mi Calm Calm - N/A   Clear
1:15 AM 64.4 °F - 62.6 °F 94% 30.30 in 2.0 mi Calm Calm - N/A   Clear
1:35 AM 62.6 °F - 60.8 °F 94% 30.29 in 0.8 mi Calm Calm - N/A   Mist
1:55 AM 64.4 °F - 62.6 °F 94% 30.29 in 1.8 mi Calm Calm - N/A   Scattered Clouds
2:15 AM 64.4 °F - 62.6 °F 94% 30.29 in 3.0 mi Calm Calm - N/A   Mist
2:55 AM 62.6 °F - 60.8 °F 94% 30.28 in 0.2 mi Calm Calm - N/A Fog Fog
3:15 AM 62.6 °F - 60.8 °F 94% 30.28 in 0.2 mi Calm Calm - N/A Fog Fog
3:35 AM 62.6 °F - 60.8 °F 94% 30.27 in 0.2 mi Calm Calm - N/A Fog Fog
3:55 AM 62.6 °F - 60.8 °F 94% 30.27 in 0.2 mi Calm Calm - N/A Fog Fog
4:15 AM 62.6 °F - 60.8 °F 94% 30.27 in 0.2 mi NNE 4.6 mph - N/A Fog Fog
4:35 AM 62.6 °F - 60.8 °F 94% 30.27 in 0.2 mi Calm Calm - N/A Fog Fog
4:55 AM 62.6 °F - 60.8 °F 94% 30.28 in 0.2 mi Calm Calm - N/A Fog Fog
5:15 AM 62.6 °F - 60.8 °F 94% 30.28 in 0.2 mi Calm Calm - N/A Fog Fog
5:35 AM 62.6 °F - 60.8 °F 94% 30.28 in 0.2 mi Calm Calm - N/A Fog Fog
5:55 AM 62.6 °F - 60.8 °F 94% 30.28 in 0.2 mi Calm Calm - N/A Fog Fog
6:15 AM 60.8 °F - 60.8 °F 100% 30.29 in 0.2 mi Calm Calm - N/A Fog Fog
6:35 AM 60.8 °F - 60.8 °F 100% 30.29 in 0.2 mi Calm Calm - N/A Fog Fog
6:55 AM 60.8 °F - 59.0 °F 94% 30.30 in 0.2 mi Calm Calm - N/A Fog Fog
7:15 AM 60.8 °F - 59.0 °F 94% 30.31 in 0.2 mi Calm Calm - N/A Fog Fog
7:35 AM 60.8 °F - 60.8 °F 100% 30.31 in 0.2 mi Calm Calm - N/A Fog Fog
7:55 AM 62.6 °F - 60.8 °F 94% 30.31 in 0.2 mi Calm Calm - N/A Fog Fog
8:15 AM 62.6 °F - 60.8 °F 94% 30.31 in 0.2 mi Calm Calm - N/A Fog Fog
8:35 AM 62.6 °F - 60.8 °F 94% 30.32 in 0.2 mi Calm Calm - N/A Fog Fog
8:55 AM 62.6 °F - 62.6 °F 100% 30.31 in 0.2 mi Calm Calm - N/A Fog Fog
9:15 AM 64.4 °F - 62.6 °F 94% 30.32 in 0.2 mi Calm Calm - N/A Fog , Thunderstorm Fog
9:35 AM 64.4 °F - 62.6 °F 94% 30.32 in 0.5 mi Calm Calm - N/A Fog Fog
9:55 AM 64.4 °F - 62.6 °F 94% 30.32 in 0.8 mi Calm Calm - N/A   Overcast
10:15 AM 64.4 °F - 62.6 °F 94% 30.32 in 1.5 mi Calm Calm - N/A   Overcast
10:35 AM 66.2 °F - 64.4 °F 94% 30.31 in 3.0 mi Calm Calm - N/A   Overcast
10:55 AM 69.8 °F - 66.2 °F 88% 30.30 in 5.0 mi Calm Calm - N/A   Mostly Cloudy
11:15 AM 71.6 °F - 64.4 °F 78% 30.30 in 5.0 mi Calm Calm - N/A   Haze
11:35 AM 73.4 °F - 66.2 °F 78% 30.29 in 7.0 mi South 5.8 mph - N/A   Clear
11:55 AM 75.2 °F - 64.4 °F 69% 30.29 in 10.0 mi WSW 5.8 mph - N/A   Scattered Clouds
12:15 PM 77.0 °F - 64.4 °F 65% 30.28 in 10.0 mi Calm Calm - N/A   Clear
12:35 PM 78.8 °F - 64.4 °F 61% 30.27 in 7.0 mi West 4.6 mph - N/A   Scattered Clouds
12:55 PM 77.0 °F - 64.4 °F 65% 30.27 in 10.0 mi SW 4.6 mph - N/A   Scattered Clouds
1:15 PM 75.2 °F - 64.4 °F 69% 30.26 in 10.0 mi WNW 3.5 mph - N/A   Mostly Cloudy
1:35 PM 73.4 °F - 64.4 °F 73% 30.25 in 10.0 mi West 3.5 mph - N/A   Mostly Cloudy
1:55 PM 75.2 °F - 64.4 °F 69% 30.24 in 10.0 mi NW 4.6 mph - N/A   Scattered Clouds
2:15 PM 78.8 °F - 64.4 °F 61% 30.24 in 10.0 mi NW 6.9 mph - N/A   Clear
2:35 PM 78.8 °F - 64.4 °F 61% 30.23 in 10.0 mi NW 5.8 mph - N/A Thunderstorm Clear
2:55 PM 80.6 °F 81.5 °F 60.8 °F 51% 30.22 in 10.0 mi NW 5.8 mph - N/A   Clear
3:15 PM 80.6 °F 81.5 °F 60.8 °F 51% 30.21 in 10.0 mi Calm Calm - N/A Thunderstorm Clear
3:35 PM 80.6 °F 82.3 °F 64.4 °F 58% 30.22 in 10.0 mi West 8.1 mph - N/A   Scattered Clouds
3:55 PM 77.0 °F - 62.6 °F 61% 30.22 in 10.0 mi WNW 5.8 mph - N/A   Scattered Clouds
4:15 PM 78.8 °F - 62.6 °F 57% 30.21 in 10.0 mi NW 6.9 mph - N/A   Scattered Clouds
4:35 PM 78.8 °F - 62.6 °F 57% 30.20 in 10.0 mi WSW 3.5 mph - N/A   Clear
4:55 PM 78.8 °F - 64.4 °F 61% 30.19 in 10.0 mi West 5.8 mph - N/A   Clear
5:15 PM 77.0 °F - 64.4 °F 65% 30.19 in 10.0 mi WSW 5.8 mph - N/A   Clear
5:35 PM 77.0 °F - 64.4 °F 65% 30.19 in 10.0 mi WSW 4.6 mph - N/A   Clear
5:55 PM 78.8 °F - 64.4 °F 61% 30.20 in 10.0 mi WSW 4.6 mph - N/A   Clear
6:15 PM 78.8 °F - 62.6 °F 57% 30.19 in 10.0 mi West 6.9 mph - N/A   Clear
6:35 PM 77.0 °F - 62.6 °F 61% 30.19 in 10.0 mi West 5.8 mph - N/A   Clear
6:55 PM 75.2 °F - 62.6 °F 65% 30.19 in 10.0 mi Calm Calm - N/A   Clear
7:15 PM 73.4 °F - 64.4 °F 73% 30.19 in 10.0 mi SW 4.6 mph - N/A   Clear
7:35 PM 73.4 °F - 64.4 °F 73% 30.19 in 10.0 mi SW 3.5 mph - N/A   Clear
7:55 PM 71.6 °F - 64.4 °F 78% 30.19 in 10.0 mi WSW 3.5 mph - N/A   Clear
8:15 PM 71.6 °F - 64.4 °F 78% 30.20 in 10.0 mi WSW 3.5 mph - N/A   Clear
8:35 PM 69.8 °F - 62.6 °F 78% 30.20 in 7.0 mi Calm Calm - N/A   Clear
8:55 PM 69.8 °F - 64.4 °F 83% 30.20 in 7.0 mi Calm Calm - N/A   Scattered Clouds
9:15 PM 69.8 °F - 62.6 °F 78% 30.20 in 10.0 mi Calm Calm - N/A   Scattered Clouds
9:35 PM 68.0 °F - 62.6 °F 83% 30.20 in 7.0 mi Calm Calm - N/A   Clear
9:55 PM 66.2 °F - 62.6 °F 88% 30.20 in 4.0 mi SE 3.5 mph - N/A   Clear
10:15 PM 68.0 °F - 62.6 °F 83% 30.19 in 5.0 mi Calm Calm - N/A   Clear
10:35 PM 66.2 °F - 62.6 °F 88% 30.19 in 4.0 mi Calm Calm - N/A   Clear
10:55 PM 64.4 °F - 62.6 °F 94% 30.19 in 5.0 mi SSW 3.5 mph - N/A   Clear
11:15 PM 66.2 °F - 62.6 °F 88% 30.19 in 5.0 mi Calm Calm - N/A   Clear
11:35 PM 64.4 °F - 62.6 °F 94% 30.19 in 4.0 mi Calm Calm - N/A   Clear
11:55 PM 64.4 °F - 62.6 °F 94% 30.19 in 4.0 mi Calm Calm - N/A   Clear